Home   Weather   Los Angeles   Past weeks
Flag for USA

Past Weather in Los Angeles, California, USA — Yesterday and Last 2 Weeks

Now
59 °F

Mostly cloudy.


Feels Like: 59 °F
Forecast: 65 / 56 °F
Wind: No wind

Location: Los Angeles / USC Campus Downtown

Current Time: May 21, 2019 at 2:52:04 am

Latest Report: May 21, 2019 at 2:34 am


Visibility: 10 mi

Pressure: 29.96 "Hg

Humidity: 72%

Dew Point: 50 °F

Location of Los AngelesLocation

Past Weather in Los Angeles — Graph

°F

Los Angeles Temperature Yesterday

Maximum temperature yesterday: 69 °F (at 3:47 pm)
Minimum temperature yesterday: 54 °F (at 2:47 am)
Average temperature yesterday: 61 °F

High & Low Weather Summary for the Past Weeks

 TemperatureHumidityPressure
High74 °F (May 11, 11:47 am)93% (May 16, 7:12 am)30.08 "Hg (May 16, 7:12 am)
Low52 °F (May 19, 4:04 am)35% (May 17, 10:47 am)29.76 "Hg (May 9, 4:47 pm)
Average62 °F71%29.92 "Hg
* Reported May 6 1:47 am — May 21 1:47 am, Los Angeles. Weather by CustomWeather, © 2019

Note: Actual official high and low records may vary slightly from our data, if they occured in-between our weather recording intervals... More about our weather records

Advertising

Los Angeles Weather History for the Previous 24 Hours

Scroll right to see more
 ConditionsComfort  
Time TempWeatherWind HumidityBarometerVisibility
1:47 am
Tue, May 21
58 °FMostly cloudy.No wind75%29.96 "Hg10 mi
12:47 am58 °FOvercast.No wind78%29.96 "Hg10 mi
12:04 am58 °FPassing clouds.No wind78%29.97 "Hg10 mi
11:47 pm
Mon, May 20
58 °FPartly cloudy.No wind78%29.97 "Hg10 mi
10:47 pm58 °FClear.No wind78%29.96 "Hg10 mi
9:47 pm59 °FClear.No wind75%29.95 "Hg10 mi
8:47 pm60 °FPassing clouds.No wind72%29.94 "Hg10 mi
7:47 pm61 °FSunny.No wind67%29.92 "Hg10 mi
6:47 pm65 °FPartly sunny.5 mph59%29.91 "Hg10 mi
5:47 pm67 °FScattered clouds.5 mph49%29.90 "Hg10 mi
4:47 pm69 °FSunny.7 mph42%29.90 "Hg10 mi
3:47 pm69 °FSunny.5 mph42%29.90 "Hg10 mi
1:47 pm68 °FSunny.N/A45%29.90 "Hg10 mi
12:47 pm67 °FSunny.3 mph47%29.90 "Hg10 mi
11:47 am68 °FSunny.3 mph47%29.89 "Hg10 mi
10:47 am66 °FSunny.N/A50%29.88 "Hg10 mi
9:47 am67 °FSunny.5 mph45%29.88 "Hg10 mi
8:47 am62 °FSunny.5 mph58%29.88 "Hg10 mi
7:47 am60 °FSunny.No wind65%29.88 "Hg10 mi
6:47 am57 °FSunny.No wind72%29.87 "Hg10 mi
5:47 am56 °FPassing clouds.No wind72%29.85 "Hg10 mi
4:47 am57 °FOvercast.No wind69%29.84 "Hg10 mi
3:50 am55 °FPassing clouds.No wind74%29.85 "Hg10 mi
3:31 am55 °FOvercast.No wind77%29.85 "Hg10 mi
2:47 am54 °FPassing clouds.No wind80%29.84 "Hg10 mi
Weather by CustomWeather, © 2019

See weather overview